Powrót do katalogu

DELTA 1 DEB

AktywnyLEO
NORAD 10710·DEBRIS·🇺🇸 United States

Wystrzelony Jul 29, 1976 z Vandenberg Space Force Base

Loading…

Następne Przeloty (najbliższe 24 godziny)

TLE

ŚwieżeSource: Space-Track

Epoka: Sep 13, 2026, 08:33 UTC

1 10710U 76077AF  26256.35685764  .00000225  00000-0  29793-2 0  9992
2 10710 101.8005  41.8069 0266736 258.5432 126.2016 11.99468648163355

Śledź DELTA 1 DEB w czasie rzeczywistym z AllMySat

Download on the App Store